Location: Brachstadt
(48.6975°N, 10.6755°E)
Time: 15:45:26
(UTC+00:00)

Lacrosse 4 Rocket - Pass Details

Date: 18 September 2020
Orbit: 543 x 615 km, 68.0° (Epoch: 24 October)

Event Time Altitude Azimuth Distance (km) Brightness Sun altitude
Rises 19:20:07 0° 336° (NNW) 2,717 5.7 -19.4°
Reaches altitude 10° 19:23:44 10° 10° (N) 1,822 4.2 -20.0°
Maximum altitude 19:25:14 12° 31° (NNE) 1,716 3.8 -20.2°
Enters shadow 19:25:48 11° 40° (NE) 1,732 3.7 -20.3°
